Content
SEND FEEDBACK

Daily
Averages
Monthly
Summary
United States of America

WILLIAMS, MINNESOTA


Home > North America > United States > Minnesota
Elevation: 329 meters     Latitude: 48 43N     Longitude: 094 37W

WEATHER
 
SELECT A DAY
Number of Records: 142,038;   Date Range: 2/10/95 - 7/29/14
 
SHARE

PRINT THIS DATA

[ ← Previous Day ]
WEATHER ALMANAC - 31 JANUARY, 2013
[ Next Day → ]
[ °F ]   °C
Weather ElementAverageHighLow
Temperature-22.4 °C-18.9 °C (12:53 am)-30 °C (11:53 pm)
Dewpoint-25.8 °C-21 °C (12:40 am)-32.8 °C (11:53 pm)
Humidity74.5 %85 % (12:40 am)62 % (1:53 pm)
Barometer1018.3 hPa1025.7 hPa (9:53 pm)1008.5 hPa (12:40 am)
Wind Speed21.4 km/h33.3 km/h (10:46 am)
Wind Gust44.4 km/h (10:46 am)
Weather ElementAverage
Visibility10.8 km
Wind DirectionWNW (293.2 °)

Weather ElementTotal
Precipitation---
Heating Degree Days42.8 (Base 18.3)
Averaged from 31 records on 31 January, 2013
WEATHER CONDITIONS BREAKOUT
WIND DIRECTION BREAKOUT
WEATHER BY HOUR - 31 JANUARY, 2013
[ °F ]   °C
Local TimeTemperatureDewpointHumidityBarometerVisibilityWind DirectionWind SpeedGust SpeedPrecipitationEventsConditions
12:40 AM-19 °C-21 °C85 %1008.5 hPa4.8 kmNW (320°)22.2 km/hOvercast
12:53 AM-18.9 °C-21.1 °C83 %1011.9 hPa4 kmNW (320°)24.1 km/hOvercast
1:08 AM-19 °C-21 °C85 %1008.8 hPa4.8 kmNW (320°)20.4 km/hOvercast
1:53 AM-18.9 °C-21.7 °C79 %1012.2 hPa6.4 kmNW (320°)24.1 km/hHaze
2:53 AM-19.4 °C-22.2 °C79 %1012.9 hPa6.4 kmNW (320°)24.1 km/hHaze
3:53 AM-20 °C-22.8 °C79 %1013.5 hPa8 kmNW (320°)20.4 km/h0 mmHaze
4:51 AM-21 °C-23 °C84 %1011.2 hPa4 kmNNW (330°)27.8 km/h0 mmSnowLight Snow
4:53 AM-20.6 °C-23.3 °C80 %1014.6 hPa4.8 kmNW (320°)25.9 km/h0 mmSnowLight Snow
5:53 AM-21.1 °C-23.3 °C83 %1015.2 hPa8 kmNNW (330°)24.1 km/h0 mmSnowLight Snow
6:53 AM-21.1 °C-23.9 °C79 %1016.3 hPa8 kmNNW (330°)24.1 km/h0 mmHaze
7:53 AM-21.7 °C-24.4 °C79 %1017.3 hPa8 kmNW (320°)29.6 km/h0 mmHaze
8:53 AM-22.2 °C-25 °C79 %1018.6 hPa9.7 kmNW (320°)29.6 km/hHaze
9:17 AM-22 °C-26 °C71 %1015.6 hPa8 kmNW (320°)27.8 km/h38.9 km/hHaze
9:28 AM-22 °C-26 °C71 %1015.6 hPa14.5 kmNW (320°)24.1 km/h38.9 km/hScattered Clouds
9:53 AM-22.2 °C-25.6 °C75 %1019.6 hPa8 kmNW (320°)31.5 km/hHaze
10:18 AM-22 °C-26 °C71 %1016.3 hPa6.4 kmNW (320°)29.6 km/hHaze
10:46 AM-22 °C-26 °C71 %1016.6 hPa8 kmNW (310°)33.3 km/h44.4 km/hHaze
10:53 AM-21.7 °C-25.6 °C72 %1020.7 hPa6.4 kmNW (320°)31.5 km/h44.4 km/hHaze
11:53 AM-21.1 °C-25 °C72 %1021 hPa14.5 kmNW (320°)31.5 km/hPartly Cloudy
12:53 PM-20.6 °C-25.6 °C65 %1021.3 hPa16.1 kmNW (310°)27.8 km/hPartly Cloudy
1:53 PM-20 °C-25.6 °C62 %1021.3 hPa16.1 kmWNW (290°)16.7 km/h27.8 km/hClear
2:53 PM-20.6 °C-26.1 °C62 %1022 hPa16.1 kmNW (310°)18.5 km/h29.6 km/hClear
3:53 PM-21.1 °C-26.7 °C62 %1022.7 hPa16.1 kmNW (310°)22.2 km/hClear
4:53 PM-22.2 °C-27.2 °C65 %1023.4 hPa16.1 kmWNW (290°)13 km/hClear
5:53 PM-24.4 °C-28.9 °C67 %1024 hPa16.1 kmWNW (290°)11.1 km/hClear
6:53 PM-26.1 °C-30 °C71 %1024.4 hPa16.1 kmWNW (290°)9.3 km/hClear
7:53 PM-27.2 °C-30.6 °C74 %1025.1 hPa16.1 kmWNW (300°)11.1 km/hClear
8:53 PM-28 °C-31 °C76 %1021.3 hPa16.1 kmWNW (300°)13 km/hClear
9:53 PM-28.3 °C-31.7 °C74 %1025.7 hPa16.1 kmWNW (300°)9.3 km/hClear
10:53 PM-29.4 °C-32.2 °C77 %1025.7 hPa16.1 kmVariable5.6 km/hClear
11:53 PM-30 °C-32.8 °C77 %1025.4 hPa16.1 kmCalmClear
Hourly data recorded from KBDE, located 0 kilometers away from Williams, Minnesota







STORIES FROM OUR PARTNERS